OPS 4682 DEB, 14048

Orbit data source: Space-Track

OPS 4682 DEB, 14048 is space debris in LEO originally from a launch on Sat, 03 Apr 1965 UTC launched from the Air Force Western Test Range (AFWTR). Debris objects in space refer to the collection of defunct objects orbiting the Earth. Examples of debris include non-operational satellites, rocket bodies, and fragments generated from explosions, collisions, or faulty payload assembly.

Loading next visibility...
Identifier
14048, 1965-027K
Orbit
LEO
Country
Flag of USUS
Related business
Manufacturer
Unknown
Mission
Spacecraft
Bus & Motor
Unknown
Mass
Unknown
Launch date (UTC)
1965-04-03 (61 years ago)
Launch vehicle
Unknown
Launch site
Air Force Western Test Range (AFWTR)
Object type
Payload
Rocket body
Debris
Shape & HBR
Unknown shape, 0.1 m
Radar Cross Section
Small (<0.1 m²)

Expand to show TLE details & history
Last TLE update: 1 day ago

TLE from 1 day ago
0 OPS 4682 DEB
1 14048U 65027K   26103.24366794  .00000580  00000-0  19246-2 0  9997
2 14048  90.2527  13.3274 0017592  83.7887  70.4174 12.99223949 45270
Epoch: 2026-04-13T05:50Z
TLE epoch observation values (Epoch: 2026-04-13T05:50:52.910Z)
Latitude
25.63153°
Longitude
-95.70948°
Altitude
1,263.748 km
Speed
7.228 km/s
True Right ascension
12h 53m 47s
True Declination
25° 30' 24"
Sunlit
Object was in full shadow at epoch
Visualization orbit readout
Latitude
Unknown
Longitude
Unknown
Altitude
Unknown
Speed
Unknown
Apparent Right ascension
Unknown
Apparent Declination
Unknown
Sunlit
N/A
Visualization observer readout
Local Sidereal Time
18:47:34
Azimuth
Unknown
Elevation
Unknown
Doppler factor
Unknown
Orbital elements
Apogee altitude
1,275.698 km
Perigee altitude
1,248.816 km
Semi-major axis
7,640.394 km
Eccentricity
0.00176
Inclination
90.2527°
RAAN
13.3274°
Arg. of periapsis
83.7887°
True anomaly
70.60747°
Mean anomaly
70.4174°
Eccentric anomaly
70.51242°
Mean motion
3.2499 °/min
Orbital period
110.77 mins
BSTAR
0.0019246
Loading maneuver chart data...
Computing Atmospheric mass density...
Loading historical data...
Loading historical data...
Loading historical data...
Loading historical data...
Loading historical data...
Loading historical data...
Loading historical data...

Documentation

Showing up to 5 results
|